Belen, NM

10:19 PM MDT on May 21, 2018 (GMT -0600)
Belen

Weather History for KE80 - June, 2013

Change the Weather History Date:

Tuesday, June 18, 2013

  Actual Average (KABQ) Record (KABQ)
Temperature  
Mean Temperature 78 °F -  
Max Temperature 93 °F 92 °F 101 °F (1974)
Min Temperature 64 °F 60 °F 45 °F (1907)
Cooling Degree Days 14    
Growing Degree Days 28 (Base 50)    
Moisture  
Dew Point 43 °F    
Average Humidity 30    
Maximum Humidity 60    
Minimum Humidity 11    
Precipitation  
Precipitation 0.00 in - - ()
Sea Level Pressure  
Sea Level Pressure 30.07 in    
Wind  
Wind Speed 8 mph (SSE)    
Max Wind Speed 20 mph    
Max Gust Speed 26 mph    
Visibility 10 miles    
Events      
Averages and records for this station are not official NWS values.
T = Trace of Precipitation, MM = Missing Value Source: NWS Daily Summary

Daily Weather History Graph

Daily Weather History Graph

Search for Another Location

Airport or City:

Astronomy

Jun. 18, 2013 Rise Set
Actual Time 5:54 AM MDT 8:22 PM MDT
Civil Twilight 5:24 AM MDT 8:52 PM MDT
Nautical Twilight 4:48 AM MDT 9:28 PM MDT
Astronomical Twilight 4:08 AM MDT 10:09 PM MDT
Moon 3:19 PM MDT (6/18) 1:53 AM MDT (6/18)
Length of Visible Light 15h 27m
Length of Day
14h 28m
Waxing Gibbous, 71% of the Moon is Illuminated
Jun 18
Waxing Gibbous
Jun 23
Full
Jun 29
Last Quarter
Jul 8
New
Jul 15
First Quarter

Hourly Weather History & Observations

Time (MDT) Temp. Dew Point Humidity Pressure Visibility Wind Dir Wind Speed Gust Speed Precip Events Conditions
12:15 AM 79.2 °F 35.8 °F 21% 30.05 in 10.0 mi Calm Calm - N/A   Scattered Clouds
12:35 AM 79.2 °F 39.4 °F 24% 30.05 in 10.0 mi East 3.5 mph - N/A   Clear
12:55 AM 79.3 °F 42.8 °F 27% 30.06 in 10.0 mi SSE 9.2 mph - N/A   Clear
1:15 AM 78.1 °F 44.6 °F 30% 30.06 in 10.0 mi SE 10.4 mph - N/A   Clear
1:35 AM 77.4 °F 44.6 °F 31% 30.07 in 10.0 mi SE 10.4 mph - N/A   Clear
1:55 AM 74.7 °F 46.0 °F 36% 30.08 in 10.0 mi East 3.5 mph - N/A   Clear
2:15 AM 74.8 °F 45.9 °F 36% 30.09 in 10.0 mi SE 10.4 mph 16.1 mph N/A   Clear
2:35 AM 74.5 °F 47.3 °F 38% 30.10 in 10.0 mi ESE 13.8 mph - N/A   Clear
2:55 AM 73.4 °F 48.6 °F 41% 30.10 in 10.0 mi ESE 11.5 mph 16.1 mph N/A   Clear
3:15 AM 72.7 °F 49.5 °F 44% 30.11 in 10.0 mi ESE 15.0 mph 23.0 mph N/A   Clear
3:35 AM 71.8 °F 50.0 °F 46% 30.11 in 10.0 mi ESE 11.5 mph - N/A   Clear
3:55 AM 71.4 °F 50.0 °F 47% 30.11 in 10.0 mi SE 11.5 mph 18.4 mph N/A   Clear
4:15 AM 71.1 °F 49.6 °F 47% 30.12 in 10.0 mi ESE 9.2 mph - N/A   Clear
4:35 AM 69.8 °F 49.6 °F 49% 30.12 in 10.0 mi ESE 4.6 mph - N/A   Clear
4:55 AM 67.8 °F 49.3 °F 51% 30.13 in 10.0 mi NW 3.5 mph - N/A   Clear
5:15 AM 65.5 °F 49.5 °F 56% 30.14 in 10.0 mi Calm Calm - N/A   Clear
5:35 AM 66.0 °F 49.8 °F 56% 30.14 in 10.0 mi Calm Calm - N/A   Clear
5:55 AM 64.0 °F 49.5 °F 59% 30.15 in 10.0 mi WNW 6.9 mph - N/A   Clear
6:15 AM 64.0 °F 49.8 °F 60% 30.16 in 10.0 mi WNW 5.8 mph - N/A   Clear
6:35 AM 64.9 °F 49.6 °F 58% 30.17 in 10.0 mi West 5.8 mph - N/A   Clear
6:55 AM 65.8 °F 49.5 °F 55% 30.18 in 10.0 mi WNW 8.1 mph - N/A   Clear
7:15 AM 68.0 °F 50.2 °F 53% 30.18 in 10.0 mi NNW 6.9 mph - N/A   Clear
7:35 AM 68.9 °F 50.5 °F 52% 30.19 in 10.0 mi NNW 6.9 mph - N/A   Clear
7:55 AM 69.8 °F 50.5 °F 50% 30.19 in 10.0 mi NW 5.8 mph - N/A   Clear
8:15 AM 71.1 °F 50.4 °F 48% 30.20 in 10.0 mi NW 4.6 mph - N/A   Clear
8:35 AM 71.6 °F 50.7 °F 48% 30.20 in 10.0 mi NE 4.6 mph - N/A   Clear
8:55 AM 72.9 °F 50.7 °F 46% 30.20 in 10.0 mi Calm Calm - N/A   Clear
9:15 AM 75.2 °F 50.4 °F 42% 30.20 in 10.0 mi SE 13.8 mph 18.4 mph N/A   Clear
9:35 AM 75.6 °F 50.5 °F 41% 30.19 in 10.0 mi SSE 12.7 mph - N/A   Clear
9:55 AM 76.1 °F 50.5 °F 41% 30.20 in 10.0 mi SSE 9.2 mph 16.1 mph N/A   Clear
10:15 AM 76.3 °F 50.4 °F 40% 30.19 in 10.0 mi SSE 6.9 mph - N/A   Clear
10:35 AM 77.2 °F 50.0 °F 38% 30.19 in 10.0 mi SE 8.1 mph 16.1 mph N/A   Clear
10:55 AM 78.4 °F 49.6 °F 36% 30.18 in 10.0 mi SSE 9.2 mph - N/A   Clear
11:15 AM 78.8 °F 50.4 °F 37% 30.18 in 10.0 mi SE 10.4 mph - N/A   Clear
11:35 AM 79.3 °F 50.4 °F 36% 30.17 in 10.0 mi ESE 9.2 mph 16.1 mph N/A   Scattered Clouds
11:55 AM 82.4 °F 49.6 °F 32% 30.16 in 10.0 mi SSE 11.5 mph 19.6 mph N/A   Clear
12:15 PM 82.2 °F 48.6 °F 31% 30.14 in 10.0 mi SE 5.8 mph 9.2 mph N/A   Clear
12:35 PM 83.5 °F 46.2 °F 27% 30.14 in 10.0 mi SE 4.6 mph 18.4 mph N/A   Clear
12:55 PM 84.9 °F 45.0 °F 25% 30.12 in 10.0 mi ESE 10.4 mph 18.4 mph N/A   Clear
1:15 PM 85.3 °F 43.9 °F 23% 30.12 in 10.0 mi East 4.6 mph - N/A   Clear
1:35 PM 87.8 °F 42.4 °F 20% 30.10 in 10.0 mi ESE 12.7 mph 18.4 mph N/A   Clear
1:55 PM 88.2 °F 41.2 °F 19% 30.10 in 10.0 mi South 9.2 mph - N/A   Clear
2:15 PM 87.4 °F 38.3 °F 18% 30.08 in 10.0 mi SSE 9.2 mph - N/A   Scattered Clouds
2:35 PM 88.7 °F 37.0 °F 16% 30.08 in 10.0 mi South 4.6 mph - N/A   Clear
2:55 PM 88.9 °F 38.1 °F 17% 30.06 in 10.0 mi SSE 5.8 mph - N/A   Scattered Clouds
3:15 PM 89.6 °F 38.1 °F 16% 30.05 in 10.0 mi South 4.6 mph - N/A   Clear
3:35 PM 91.2 °F 35.6 °F 14% 30.04 in 10.0 mi South 12.7 mph 18.4 mph N/A   Clear
3:55 PM 91.6 °F 36.0 °F 14% 30.03 in 10.0 mi SE 9.2 mph - N/A   Clear
4:15 PM 92.1 °F 35.4 °F 14% 30.02 in 10.0 mi SSE 11.5 mph - N/A   Scattered Clouds
4:35 PM 91.8 °F 34.0 °F 13% 30.01 in 10.0 mi South 3.5 mph - N/A   Clear
4:55 PM 92.3 °F 34.3 °F 13% 30.00 in 10.0 mi SSE 15.0 mph - N/A   Clear
5:15 PM 93.9 °F 32.9 °F 12% 29.98 in 10.0 mi SSE 17.3 mph 23.0 mph N/A   Clear
5:35 PM 92.8 °F 33.1 °F 12% 29.97 in 10.0 mi SE 11.5 mph 18.4 mph N/A   Clear
5:55 PM 93.2 °F 32.4 °F 12% 29.96 in 10.0 mi SSE 17.3 mph - N/A   Clear
6:15 PM 93.4 °F 32.2 °F 11% 29.95 in 10.0 mi ESE 16.1 mph - N/A   Clear
6:35 PM 93.4 °F 31.8 °F 11% 29.95 in 10.0 mi SSE 12.7 mph - N/A   Clear
6:55 PM 92.7 °F 32.2 °F 12% 29.95 in 10.0 mi South 17.3 mph 26.5 mph N/A   Clear
7:15 PM 92.1 °F 32.7 °F 12% 29.95 in 10.0 mi South 17.3 mph 25.3 mph N/A   Clear
7:35 PM 91.4 °F 32.9 °F 13% 29.95 in 10.0 mi SSE 19.6 mph - N/A   Clear
7:55 PM 90.5 °F 32.0 °F 12% 29.95 in 10.0 mi South 18.4 mph 25.3 mph N/A   Clear
8:15 PM 89.1 °F 32.0 °F 13% 29.94 in 10.0 mi SSE 19.6 mph 24.2 mph N/A   Clear
8:35 PM 88.0 °F 31.5 °F 13% 29.94 in 10.0 mi SSE 16.1 mph 24.2 mph N/A   Clear
8:55 PM 86.7 °F 34.2 °F 15% 29.94 in 10.0 mi SSE 16.1 mph - N/A   Clear
9:15 PM 85.3 °F 38.5 °F 19% 29.94 in 10.0 mi SSE 12.7 mph 19.6 mph N/A   Clear
9:35 PM 84.4 °F 39.2 °F 20% 29.95 in 10.0 mi SSE 15.0 mph 20.7 mph N/A   Clear
9:55 PM 84.2 °F 39.4 °F 20% 29.96 in 10.0 mi SSE 15.0 mph 20.7 mph N/A   Clear
10:15 PM 82.9 °F 39.6 °F 21% 29.96 in 10.0 mi South 13.8 mph - N/A   Clear
10:35 PM 81.9 °F 39.6 °F 22% 29.97 in 10.0 mi South 16.1 mph - N/A   Clear
10:55 PM 80.1 °F 39.6 °F 24% 29.97 in 10.0 mi SW 12.7 mph - N/A   Clear
11:15 PM 80.4 °F 39.7 °F 23% 29.97 in 10.0 mi SSW 18.4 mph 24.2 mph N/A   Clear
11:35 PM 80.6 °F 39.6 °F 23% 29.97 in 10.0 mi South 18.4 mph 21.9 mph N/A   Clear
11:55 PM 80.6 °F 39.4 °F 23% 29.98 in 10.0 mi South 19.6 mph - N/A   Clear